XMM-NEWTON (25989 NORAD) Tracking and Keplerian Element Data

This shows tracking and keplerian element data for the satellite.

Feedback or suggestion? Click here.




ElementValue
Catalog25989
NameXMM-NEWTON
Epoch Orbit2051
Epoch Day35.7518715
Epoch Year2025
RAAN289.6218
Inclination66.8378
Eccentricity0.4944305
Argument of Perigee73.4584
Mean Anonmoly359.9569
Mean Motion0.50130668
Decay Rate1.37E-06
L11 25989U 99066A 25035.75187150 .00000137 00000+0 00000+0 0 9991
L22 25989 66.8378 289.6218 4944305 73.4584 359.9569 0.50130668 20512



Live tracking and technical data element details for XMM-NEWTON (NORAD 25989). XMM-NEWTON can be tracked NOW for your location showing map with azimuth and elevation plus other details from your city location.







IsCatalogInMostPopularTable: catalog: 25989, numindb: 347
Update: records affected: 1



GetName: 25989 XMM-NEWTON

Hit Count: updated at: Thu, 15 May 2025 09:16:32 GMT